Location: Home
(42.5358°N, 72.7383°W)
Time: 06:55:06
(UTC-05:00)

Envisat - Pass Details

Date: 29 October 2021
Orbit: 764 x 766 km, 98.2° (Epoch: 07 December)

Event Time Altitude Azimuth Distance (km) Brightness Sun altitude
Rises 18:28:48 0° 214° (SW) 3,220 7.0 -8.2°
Reaches altitude 10° 18:32:15 10° 239° (WSW) 2,300 6.8 -8.8°
Maximum altitude 18:34:52 14° 271° (W) 2,033 6.6 -9.3°
Drops below altitude 10° 18:37:30 10° 302° (WNW) 2,309 6.2 -9.8°
Sets 18:41:00 0° 327° (NNW) 3,241 6.6 -10.4°
